CZ-6A DEB, 56623

Orbit data source: Space-Track

CZ-6A DEB, 56623 is space debris in SSO originally from a launch on Fri, 11 Nov 2022 UTC launched from the Taiyaun Space Center, China (TSC). Debris objects in space refer to the collection of defunct objects orbiting the Earth. Examples of debris include non-operational satellites, rocket bodies, and fragments generated from explosions, collisions, or faulty payload assembly.

Loading next visibility...
Identifier
56623, 2022-151AEX
Orbit
SSO
Country
Flag of CNCN / PRC
Related business
Manufacturer
SAST
Mission
Spacecraft
Bus & Motor
Unknown
Mass
Unknown
Launch date (UTC)
2022-11-11 (3 years ago)
Launch vehicle
Unknown
Launch site
Taiyaun Space Center, China (TSC)
Object type
Payload
Rocket body
Debris
Shape & HBR
Unknown shape, 0.1 m
Radar Cross Section
Small (<0.1 m²)

Expand to show TLE details & history
Last TLE update: 3 days ago

TLE from 3 days ago
0 CZ-6A DEB
1 56623U 22151AEX 25346.70017332  .00000903  00000-0  62187-3 0  9995
2 56623  98.8780 324.4062 0103288 191.0544 168.8351 13.99292379135152
Epoch: 2025-12-12T16:48Z
TLE epoch observation values (Epoch: 2025-12-12T16:48:14.974Z)
Latitude
0.00001°
Longitude
-9.29423°
Altitude
972.884 km
Speed
7.328 km/s
True Right ascension
21h 37m 37s
True Declination
0° 00' 00"
Sunlit
Object was in daylight at epoch
Visualization orbit readout
Latitude
Unknown
Longitude
Unknown
Altitude
Unknown
Speed
Unknown
Apparent Right ascension
Unknown
Apparent Declination
Unknown
Sunlit
N/A
Visualization observer readout
Local Sidereal Time
15:06:12
Azimuth
Unknown
Elevation
Unknown
Doppler factor
Unknown
Orbital elements
Apogee altitude
968.547 km
Perigee altitude
818.334 km
Semi-major axis
7,271.578 km
Eccentricity
0.01033
Inclination
98.878°
RAAN
324.4062°
Arg. of periapsis
191.0544°
True anomaly
169.06141°
Mean anomaly
168.8351°
Eccentric anomaly
168.94854°
Mean motion
3.50026 °/min
Orbital period
102.85 mins
BSTAR
0.00062187
Loading maneuver chart data...
Computing Atmospheric mass density...
Loading historical data...
Loading historical data...
Loading historical data...
Loading historical data...
Loading historical data...
Loading historical data...
Loading historical data...

Documentation

Showing up to 5 results
|